Location: Dittelbrunn
(50.0738°N, 10.2196°E)
Time: 17:06:28
(UTC+00:00)

Meteor 2-9 Rocket - Pass Details

Date: 18 September 2020
Orbit: 791 x 896 km, 81.3° (Epoch: 30 October)

Event Time Altitude Azimuth Distance (km) Brightness Sun altitude
Rises 17:51:21 0° 176° (S) 3,499 7.3 -5.0°
Reaches altitude 10° 17:53:50 10° 172° (S) 2,561 6.5 -5.4°
Maximum altitude 17:59:32 56° 95° (E) 1,050 4.4 -6.3°
Drops below altitude 10° 18:05:11 10° 19° (NNE) 2,542 6.6 -7.2°
Sets 18:07:39 0° 16° (NNE) 3,472 7.4 -7.6°
